Kristof Depuydt

Kristof Depuydt

Statistiques 2026

  • Courses courues : 234
  • Nb de victoires : 26
  • Nb de places : 65
  • Écart gagnant : 14
  • Réussite à la gagne : 11%
  • Réussite à la place : 28%
Musique : 2a 2a 0a 0a Da 5a 6a 8a Da 2a 3a 9a 2a 5a 1a 7a 9a Aa
DateRangCatégorieAlloc.Dist.HippodromeChevalRed. KmSpé.
24/05/26 7 Trot 15 000€ 2 750m La Capelle Manureva Turbo 1'17"5 Attelé
24/05/26 4 Trot 21 000€ 1 800m La Capelle Jaguar's Eyes 1'11"9 Attelé
07/07/26 6 Trot 24 000€ 1 800m La Capelle Lenny du Pont 1'12"2 Attelé
07/07/26 2 Trot 30 000€ 2 750m La Capelle Iroko du Caieu 1'14"0 Attelé
20/07/26 6 Trot 21 000€ 2 750m La Capelle Karla de Pagerie 1'15"9 Attelé
20/07/26 6 Trot 21 000€ 2 750m La Capelle Kefir Cohiais 1'15"5 Attelé
20/07/26 3 Trot 35 000€ 2 700m La Capelle Iroko du Caieu 1'14"3 Attelé
20/07/26 0 Trot 28 000€ 2 750m La Capelle Jet des Baux Attelé
24/07/26 4 Trot 18 000€ 2 700m La Capelle Marwin 1'15"4 Attelé
24/07/26 4 Trot 25 000€ 2 700m La Capelle Jaguar's Eyes 1'14"3 Attelé
24/07/26 1 Trot 30 000€ 2 700m La Capelle Jimbo Sport 1'13"4 Attelé
30/07/26 D Trot 18 000€ 2 750m La Capelle Narita Express Attelé
30/07/26 8 Trot 21 000€ 2 700m La Capelle Lutece 1'16"3 Attelé
30/07/26 6 Trot 21 000€ 2 700m La Capelle Lenny du Pont 1'15"0 Attelé
30/07/26 8 Trot 27 000€ 2 750m La Capelle Joeystar de Niro 1'15"5 Attelé
25/08/26 A Trot 24 000€ 2 700m La Capelle Ludo Santigny Attelé
25/08/26 9 Trot 27 000€ 2 700m La Capelle Kefir Cohiais 1'14"6 Attelé
02/09/26 6 Trot 35 000€ 2 700m La Capelle Horizon d'Eymy 1'13"4 Attelé lire

Très vite à la pointe du combat, a progressivement marqué le pas pour finir.

02/09/26 5 Trot 24 000€ 2 700m La Capelle Lenny du Pont 1'14"8 Attelé lire

Longtemps à l'arrière-garde, a conclu de très belle façon.

02/09/26 D Trot 21 000€ 1 800m La Capelle Kefir Cohiais Attelé lire

A rapidement été disqualifié.

18/07/21 3 Trot 16 000€ 2 700m La Capelle Harry Cohiais 1'15"3 Attelé
03/08/21 3 Trot 18 000€ 2 700m La Capelle Go Chicago 1'14"1 Attelé
03/08/21 0 Trot 18 000€ 2 700m La Capelle Harry Cohiais Attelé
06/03/22 D Trot 13 000€ 2 750m La Capelle Ilencio Attelé
10/07/22 D Trot 23 000€ 1 800m La Capelle Hopportun Attelé
28/07/22 3 Trot 20 000€ 2 750m La Capelle Go Chicago 1'14"8 Attelé
11/11/22 4 Trot 13 000€ 2 700m La Capelle Jupiter du Perche 1'16"2 Attelé
11/11/22 9 Trot 13 000€ 2 700m La Capelle Intrepide Occagnes 1'16"3 Attelé
11/11/22 5 Trot 13 000€ 2 700m La Capelle Ilencio 1'17"1 Attelé
26/03/23 A Trot 15 000€ 2 750m La Capelle Jupiter du Perche Attelé
26/03/23 2 Trot 19 500€ 2 750m La Capelle Grizzli de Loucas 1'16"3 Attelé
26/03/23 D Trot 15 000€ 2 750m La Capelle Intrepide Occagnes Attelé
26/03/23 8 Trot 16 000€ 2 750m La Capelle Irina des Champs 1'19"0 Attelé
11/05/23 2 Trot 18 000€ 2 750m La Capelle Jupiter du Perche 1'15"5 Attelé
16/07/23 8 Trot 24 000€ 2 750m La Capelle In The Wind 1'16"8 Attelé
16/07/23 2 Trot 21 000€ 2 750m La Capelle Hella de Jana 1'16"0 Attelé
16/07/23 9 Trot 18 000€ 2 700m La Capelle Jai Cash 1'18"2 Attelé
16/07/23 8 Trot 25 000€ 2 700m La Capelle Genie du Pin 1'15"5 Attelé
25/07/23 2 Trot 24 000€ 2 700m La Capelle Hella de Jana 1'14"9 Attelé
25/07/23 9 Trot 24 000€ 2 700m La Capelle Helios de Vandel 1'15"7 Attelé
25/07/23 8 Trot 25 000€ 2 750m La Capelle Gatsby Effel 1'16"5 Attelé
01/09/23 2 Trot 17 500€ 2 700m La Capelle Hella de Jana 1'17"8 Attelé
01/09/23 6 Trot 22 000€ 2 700m La Capelle Greta du Chatelet 1'16"0 Attelé
25/09/23 D Trot 24 000€ 2 750m La Capelle Hella de Jana Attelé
05/11/23 5 Trot 13 000€ 2 750m La Capelle Jurtikaline 1'19"0 Attelé
05/11/23 8 Trot 16 000€ 2 700m La Capelle Ibra du Thenney 1'16"9 Attelé
05/11/23 2 Trot 25 000€ 2 750m La Capelle Go Chicago 1'17"4 Attelé
11/11/23 0 Trot 15 000€ 2 700m La Capelle Julius Caesar Attelé
10/03/24 8 Trot 16 000€ 2 750m La Capelle Joker du Caieu 1'17"2 Attelé
10/03/24 D Trot 14 000€ 2 750m La Capelle Klassica Santigny Attelé